Logansport, IN

5:56 PM EST on February 13, 2016 (GMT -0500)
Logansport Municipal

Weather History for KGGP - June, 2013

Change the Weather History Date:

Sunday, June 2, 2013

  Actual Average Record
Temperature  
Mean Temperature 58 °F -  
Max Temperature 66 °F 76 °F 78 °F (2014)
Min Temperature 51 °F 56 °F 44 °F (2015)
Degree Days  
Heating Degree Days 6    
Growing Degree Days 8 (Base 50)    
Moisture  
Dew Point 55 °F    
Average Humidity 85    
Maximum Humidity 100    
Minimum Humidity 67    
Precipitation  
Precipitation 0.02 in - - ()
Sea Level Pressure  
Sea Level Pressure 29.90 in    
Wind  
Wind Speed 10 mph (WNW)    
Max Wind Speed 14 mph    
Max Gust Speed 18 mph    
Visibility 10 miles    
Events Rain    
Averages and records for this station are not official NWS values.
T = Trace of Precipitation, MM = Missing Value Source: NWS Daily Summary

Daily Weather History Graph

Daily Weather History Graph

Search for Another Location

Airport or City:

Trip Planner

Search our weather history database for the weather conditions in past years. The results will help you decide how hot, cold, wet, or windy it might be!

Date:

Astronomy

Jun. 02, 2013 Rise Set
Actual Time 6:16 AM EDT 9:11 PM EDT
Civil Twilight 5:43 AM EDT 9:44 PM EDT
Nautical Twilight 5:01 AM EDT 10:25 PM EDT
Astronomical Twilight 4:14 AM EDT 11:13 PM EDT
Moon 2:44 AM EDT (6/2) 3:39 PM EDT (6/2)
Length of Visible Light 16h 00m
Length of Day
14h 55m
Waning Crescent, 31% of the Moon is Illuminated
Jun 2
Waning Crescent
Jun 8
New
Jun 16
First Quarter
Jun 23
Full
Jun 30
Last Quarter

Hourly Weather History & Observations

Time (EDT) Temp. Dew Point Humidity Pressure Visibility Wind Dir Wind Speed Gust Speed Precip Events Conditions
12:15 AM 60.8 °F 59.0 °F 94% 29.78 in 10.0 mi South 11.5 mph - 0.01 in Rain Light Rain
12:35 AM 60.8 °F 59.0 °F 94% 29.78 in 10.0 mi SSW 9.2 mph - 0.02 in Rain Light Rain
12:55 AM 60.8 °F 59.0 °F 94% 29.78 in 10.0 mi SW 9.2 mph - 0.02 in   Mostly Cloudy
1:15 AM 60.8 °F 59.0 °F 94% 29.79 in 10.0 mi SW 11.5 mph 16.1 mph N/A   Mostly Cloudy
1:35 AM 60.8 °F 59.0 °F 94% 29.79 in 10.0 mi SW 11.5 mph - N/A   Scattered Clouds
1:55 AM 59.0 °F 59.0 °F 100% 29.79 in 10.0 mi SW 9.2 mph - N/A   Scattered Clouds
2:15 AM 59.0 °F 59.0 °F 100% 29.79 in 10.0 mi SW 9.2 mph - N/A   Scattered Clouds
2:35 AM 59.0 °F 59.0 °F 100% 29.79 in 10.0 mi SW 9.2 mph - N/A   Mostly Cloudy
2:55 AM 60.8 °F 59.0 °F 94% 29.79 in 10.0 mi SW 10.4 mph - N/A   Scattered Clouds
3:15 AM 59.0 °F 59.0 °F 100% 29.80 in 10.0 mi SW 9.2 mph - N/A   Clear
3:35 AM 59.0 °F 59.0 °F 100% 29.80 in 10.0 mi SW 10.4 mph - N/A   Clear
3:55 AM 59.0 °F 59.0 °F 100% 29.80 in 10.0 mi WSW 10.4 mph - N/A   Clear
4:15 AM 59.0 °F 57.2 °F 94% 29.80 in 10.0 mi SW 9.2 mph - N/A   Clear
4:35 AM 59.0 °F 57.2 °F 94% 29.81 in 10.0 mi SW 9.2 mph - N/A   Clear
4:55 AM 59.0 °F 57.2 °F 94% 29.81 in 10.0 mi SW 8.1 mph - N/A   Clear
5:15 AM 59.0 °F 57.2 °F 94% 29.82 in 10.0 mi SW 9.2 mph - N/A   Clear
5:35 AM 59.0 °F 57.2 °F 94% 29.82 in 10.0 mi SW 10.4 mph - N/A   Clear
5:55 AM 59.0 °F 57.2 °F 94% 29.83 in 10.0 mi WSW 10.4 mph - N/A   Clear
6:15 AM 59.0 °F 55.4 °F 88% 29.83 in 10.0 mi SW 8.1 mph - N/A   Clear
6:35 AM 59.0 °F 55.4 °F 88% 29.84 in 10.0 mi SW 9.2 mph - N/A   Scattered Clouds
6:55 AM 59.0 °F 57.2 °F 94% 29.85 in 10.0 mi WSW 10.4 mph - N/A   Mostly Cloudy
7:15 AM 59.0 °F 57.2 °F 94% 29.85 in 10.0 mi SW 9.2 mph - N/A   Overcast
7:35 AM 59.0 °F 57.2 °F 94% 29.86 in 10.0 mi SW 12.7 mph - N/A   Overcast
7:55 AM 60.8 °F 59.0 °F 94% 29.86 in 10.0 mi WSW 11.5 mph - N/A   Overcast
8:15 AM 60.8 °F 59.0 °F 94% 29.87 in 10.0 mi WSW 12.7 mph - N/A   Overcast
8:35 AM 60.8 °F 59.0 °F 94% 29.87 in 10.0 mi WSW 10.4 mph - N/A   Overcast
8:55 AM 60.8 °F 59.0 °F 94% 29.88 in 10.0 mi WSW 11.5 mph - N/A   Overcast
9:15 AM 60.8 °F 59.0 °F 94% 29.88 in 10.0 mi West 12.7 mph 16.1 mph N/A   Overcast
9:35 AM 60.8 °F 59.0 °F 94% 29.88 in 10.0 mi West 8.1 mph - N/A   Overcast
9:55 AM 62.6 °F 59.0 °F 88% 29.88 in 10.0 mi West 11.5 mph - N/A   Overcast
10:15 AM 62.6 °F 59.0 °F 88% 29.88 in 10.0 mi West 12.7 mph - N/A   Overcast
10:35 AM 64.4 °F 60.8 °F 88% 29.88 in 10.0 mi WSW 10.4 mph - N/A   Overcast
10:55 AM 64.4 °F 59.0 °F 83% 29.89 in 10.0 mi West 8.1 mph 18.4 mph N/A   Overcast
11:15 AM 62.6 °F 59.0 °F 88% 29.89 in 10.0 mi West 6.9 mph - N/A   Overcast
11:35 AM 64.4 °F 59.0 °F 83% 29.90 in 10.0 mi West 9.2 mph - N/A   Light Drizzle
11:55 AM 62.6 °F 59.0 °F 88% 29.90 in 10.0 mi West 12.7 mph - N/A   Overcast
12:15 PM 64.4 °F 59.0 °F 83% 29.91 in 10.0 mi WSW 11.5 mph - N/A   Overcast
12:35 PM 64.4 °F 59.0 °F 83% 29.91 in 10.0 mi West 8.1 mph - N/A   Overcast
12:55 PM 66.2 °F 60.8 °F 83% 29.91 in 10.0 mi WSW 5.8 mph - N/A   Overcast
1:15 PM 60.8 °F 57.2 °F 88% 29.92 in 10.0 mi NNW 11.5 mph - N/A   Overcast
1:35 PM 60.8 °F 57.2 °F 88% 29.92 in 10.0 mi North 11.5 mph - N/A   Overcast
1:55 PM 60.8 °F 55.4 °F 82% 29.93 in 10.0 mi NNW 12.7 mph - N/A   Overcast
2:15 PM 62.6 °F 57.2 °F 82% 29.93 in 10.0 mi NNW 10.4 mph - N/A   Overcast
2:35 PM 62.6 °F 57.2 °F 82% 29.94 in 10.0 mi NNW 10.4 mph - N/A   Overcast
2:55 PM 64.4 °F 57.2 °F 77% 29.94 in 10.0 mi North 8.1 mph - N/A   Overcast
3:15 PM 62.6 °F 55.4 °F 77% 29.94 in 10.0 mi NNW 9.2 mph - N/A   Overcast
3:35 PM 62.6 °F 55.4 °F 77% 29.95 in 10.0 mi NNW 10.4 mph 16.1 mph N/A   Overcast
3:55 PM 62.6 °F 55.4 °F 77% 29.96 in 10.0 mi NNW 10.4 mph 17.3 mph N/A   Overcast
4:15 PM 60.8 °F 53.6 °F 77% 29.96 in 10.0 mi NNW 10.4 mph - N/A   Overcast
4:35 PM 60.8 °F 53.6 °F 77% 29.96 in 10.0 mi NNW 9.2 mph - N/A   Overcast
4:55 PM 60.8 °F 53.6 °F 77% 29.96 in 10.0 mi NNW 12.7 mph - N/A   Overcast
5:15 PM 60.8 °F 53.6 °F 77% 29.97 in 10.0 mi North 10.4 mph - N/A   Overcast
5:35 PM 60.8 °F 53.6 °F 77% 29.96 in 10.0 mi North 11.5 mph - N/A   Overcast
5:55 PM 60.8 °F 53.6 °F 77% 29.96 in 10.0 mi NNW 11.5 mph - N/A   Overcast
6:15 PM 60.8 °F 51.8 °F 72% 29.96 in 10.0 mi NNW 12.7 mph 16.1 mph N/A   Overcast
6:35 PM 60.8 °F 51.8 °F 72% 29.96 in 10.0 mi NNW 10.4 mph - N/A   Overcast
6:55 PM 60.8 °F 51.8 °F 72% 29.96 in 10.0 mi NNW 12.7 mph - N/A   Mostly Cloudy
7:15 PM 59.0 °F 50.0 °F 72% 29.97 in 10.0 mi NNW 13.8 mph - N/A   Mostly Cloudy
7:35 PM 59.0 °F 50.0 °F 72% 29.98 in 10.0 mi NW 8.1 mph - N/A   Overcast
7:55 PM 57.2 °F 50.0 °F 77% 29.99 in 10.0 mi NNW 8.1 mph - N/A   Overcast
8:15 PM 55.4 °F 48.2 °F 77% 29.99 in 10.0 mi NNW 9.2 mph - N/A   Mostly Cloudy
8:35 PM 55.4 °F 48.2 °F 77% 29.99 in 10.0 mi NNW 10.4 mph - N/A   Scattered Clouds
8:55 PM 53.6 °F 46.4 °F 77% 29.99 in 10.0 mi NNW 10.4 mph - N/A   Scattered Clouds
9:15 PM 53.6 °F 46.4 °F 77% 29.99 in 10.0 mi NNW 11.5 mph - N/A   Scattered Clouds
9:35 PM 51.8 °F 44.6 °F 76% 30.01 in 10.0 mi NNW 8.1 mph - N/A   Clear
9:55 PM 51.8 °F 46.4 °F 82% 30.01 in 10.0 mi NNW 6.9 mph - N/A   Scattered Clouds
10:15 PM 51.8 °F 44.6 °F 76% 30.02 in 10.0 mi North 8.1 mph - N/A   Overcast
10:35 PM 51.8 °F 42.8 °F 71% 30.02 in 10.0 mi North 12.7 mph 17.3 mph N/A   Overcast
10:55 PM 51.8 °F 42.8 °F 71% 30.03 in 10.0 mi North 10.4 mph 17.3 mph N/A   Overcast
11:15 PM 51.8 °F 42.8 °F 71% 30.03 in 10.0 mi North 10.4 mph - N/A   Overcast
11:35 PM 51.8 °F 41.0 °F 67% 30.04 in 10.0 mi North 6.9 mph - N/A   Overcast
11:55 PM 51.8 °F 41.0 °F 67% 30.05 in 10.0 mi North 10.4 mph - N/A   Overcast